Theta_e
341 337 333 330 331 331 331 335 332 331 332 334 340 342 342 341 340 343 337 339 338 337 333 328 333 332 325 325 328 327 327 329 333 336 334 334 339 337 335 338 336 336 336
339 334 331 330 331 330 331 332 332 331 334 334 338 338 338 339 339 339 340 340 336 333 329 333 329 325 323 322 335 329 327 327 331 334 338 339 341 341 333 337 336 336 335
338 334 332 331 332 329 332 332 331 332 335 335 336 335 337 338 340 339 342 339 341 333 332 331 326 331 335 326 328 332 331 327 328 332 336 338 342 344 336 338 336 336 334
337 337 333 332 329 330 333 331 333 334 331 334 339 334 339 342 339 343 341 340 337 338 340 340 334 333 340 340 336 338 338 331 329 330 334 338 342 341 339 339 338 337 333
339 338 332 330 330 331 332 331 333 333 332 336 344 344 334 339 339 340 340 339 338 339 340 338 338 332 341 341 340 339 340 336 334 327 332 338 340 337 338 335 335 334 335
341 333 331 329 330 334 331 331 334 334 334 343 342 341 337 338 338 338 341 342 342 342 341 338 338 332 341 342 341 340 338 338 337 333 325 333 335 338 339 334 335 333 337
338 332 331 329 330 331 330 330 332 334 336 342 342 339 340 339 338 337 336 336 337 338 338 337 336 333 338 340 342 341 340 339 339 338 333 326 334 338 340 329 334 332 330
332 332 331 329 330 329 330 330 332 333 336 335 337 338 341 340 339 337 335 334 334 335 336 336 336 335 338 341 341 341 341 340 333 332 334 337 336 333 329 327 329 334 333
335 332 331 329 329 330 330 332 333 333 336 336 336 338 341 340 339 338 336 335 335 335 337 337 337 336 337 340 340 339 341 339 336 332 331 331 332 332 334 329 330 334 335
336 335 333 329 329 330 330 334 334 335 336 336 336 337 339 339 337 338 336 337 336 336 335 338 340 339 339 340 340 339 341 342 341 337 332 328 330 332 332 333 334 335 337
340 338 334 329 329 330 331 335 334 337 336 335 336 336 337 337 338 339 338 339 339 340 337 335 340 341 339 339 340 340 339 342 340 335 333 329 329 329 329 331 333 335 336
340 339 332 329 329 330 332 335 337 338 336 336 341 338 338 337 340 340 340 339 339 341 340 336 339 341 342 341 340 340 340 341 339 334 329 329 327 324 322 333 330 332 334
338 337 331 328 328 330 331 336 338 337 340 343 342 344 342 339 340 339 338 340 342 342 342 343 344 342 343 341 341 342 341 342 339 333 330 329 327 327 323 327 333 336 331
338 336 330 328 328 329 331 336 339 336 334 340 341 343 344 342 342 339 338 342 342 342 342 344 343 341 340 340 343 343 341 340 338 332 333 328 328 329 328 325 323 329 334
339 337 330 328 328 328 331 334 341 340 342 344 339 340 338 344 344 342 344 342 342 343 343 342 342 340 338 338 339 339 342 340 334 330 331 334 325 331 329 327 326 322 324
340 337 331 328 328 328 331 336 342 344 345 346 342 342 342 345 346 344 343 345 344 344 342 343 342 342 338 337 336 338 338 338 335 335 334 336 333 330 328 329 329 330 330
341 338 332 329 329 329 336 343 344 345 346 347 345 344 344 344 345 345 345 343 342 342 343 343 343 344 342 337 337 338 337 337 338 339 340 336 334 337 337 328 326 327 329
342 344 336 329 330 332 337 343 344 345 345 346 347 345 346 345 344 344 346 344 343 343 343 341 340 340 341 337 335 336 337 338 339 341 339 337 333 331 336 339 337 332 327
345 344 336 331 333 335 339 343 344 345 344 345 344 345 346 344 342 342 342 343 344 342 343 341 343 343 337 337 338 337 336 336 339 340 338 339 335 335 335 333 334 334 335
346 345 336 339 338 339 339 342 344 346 345 344 342 344 345 345 342 341 345 343 344 343 342 343 341 339 336 337 339 337 337 338 336 338 340 338 339 340 335 338 338 337 334
346 346 341 340 342 340 342 343 344 345 345 345 343 345 346 346 346 344 344 344 344 346 344 343 341 339 339 338 339 338 337 338 338 338 338 338 337 336 335 337 338 336 337
347 346 343 342 341 342 341 342 341 343 345 344 345 345 347 347 347 347 344 345 345 345 345 344 340 339 338 339 339 338 340 338 339 337 338 339 338 336 334 332 331 334 337
347 346 344 345 344 341 343 342 343 341 344 344 344 345 345 345 346 347 345 343 347 344 344 342 339 341 338 339 337 337 337 338 339 337 337 339 338 336 335 335 336 332 329
345 345 345 345 345 343 343 343 343 342 339 342 342 344 345 346 345 346 345 344 345 346 345 346 345 343 339 337 338 334 335 336 339 339 338 338 338 336 335 336 337 336 334
344 343 344 345 345 345 343 343 344 344 338 335 339 339 344 346 345 345 345 344 344 347 347 348 345 343 342 336 338 337 337 337 337 336 335 337 336 337 337 336 337 337 336
343 343 343 344 345 346 343 343 344 343 340 335 332 335 340 344 344 344 343 345 345 346 347 347 348 342 345 340 339 338 337 337 336 337 336 336 337 337 338 337 338 337 337
Wind_Speed
28 28 29 27 25 24 23 22 21 20 19 19 18 18 17 16 16 15 15 14 13 12 11 11 8 6 5 7 8 9 10 11 9 9 9 10 12 12 12 13 13 14 14
32 30 28 25 24 24 23 22 21 21 20 20 19 18 18 17 16 16 15 14 14 14 14 11 10 9 11 11 11 12 11 11 11 11 10 10 10 11 12 13 13 14 13
33 31 27 24 25 23 22 21 21 20 19 19 18 18 18 18 17 16 16 16 15 15 14 13 12 13 13 13 14 14 14 12 11 12 12 11 11 10 11 12 13 13 13
33 30 27 24 24 22 21 20 20 18 19 20 19 17 18 17 17 17 16 15 15 15 14 12 13 14 16 16 15 15 14 15 14 13 12 11 10 12 11 13 13 13 13
32 30 27 24 23 22 20 19 19 18 19 19 19 17 17 17 16 16 16 15 14 13 13 13 14 14 14 16 16 16 13 14 14 12 13 11 11 11 12 12 12 12 12
31 30 27 24 22 21 19 18 17 18 19 19 16 17 18 18 18 19 19 18 16 14 13 14 14 13 13 16 13 14 17 14 14 13 13 12 11 12 12 11 12 12 13
32 29 26 24 22 20 18 17 16 17 18 18 17 17 18 20 21 20 18 17 16 15 14 13 13 14 13 12 13 13 15 13 11 12 11 10 10 10 10 10 11 12 13
32 29 26 23 21 19 18 16 16 16 17 17 17 18 18 19 18 18 18 18 17 16 14 12 12 14 13 11 13 14 13 12 12 12 11 9 9 8 9 9 11 12 12
29 28 26 23 21 19 17 16 16 16 16 17 17 17 17 17 16 16 16 16 17 16 15 15 13 13 13 11 11 13 13 13 11 11 11 8 9 9 10 10 11 11 11
28 26 25 23 21 19 17 15 16 16 16 17 17 17 16 16 16 15 13 14 14 14 13 15 15 14 12 12 11 11 11 10 10 9 8 8 8 8 9 10 10 10 10
26 26 24 22 20 19 17 16 17 16 16 17 16 16 15 14 15 14 13 13 11 13 12 13 14 13 12 11 10 13 11 8 7 7 6 7 7 8 8 9 10 9 9
29 27 24 22 20 18 17 17 17 16 16 17 14 13 13 11 12 12 11 11 11 14 10 11 12 11 10 8 9 9 8 6 6 6 6 7 7 6 8 10 9 9 8
29 27 25 22 20 18 17 17 16 15 15 12 11 9 8 8 9 10 11 12 13 9 10 11 10 8 7 6 4 7 5 4 4 4 5 6 7 7 7 8 9 9 7
30 27 25 23 20 19 18 17 15 16 14 11 9 8 7 6 8 10 11 13 12 11 10 13 11 9 8 6 4 3 5 2 2 3 5 6 6 6 6 6 7 8 7
30 28 26 23 21 20 19 18 17 15 15 10 11 10 7 9 9 10 9 11 12 11 10 10 8 8 7 5 6 6 6 5 4 5 5 6 6 6 5 5 5 5 5
30 29 27 25 22 21 20 20 17 16 14 11 10 10 7 6 6 9 8 8 8 10 7 7 7 8 8 10 9 11 12 8 7 8 9 7 5 5 4 4 4 4 4
32 28 28 26 24 24 22 21 18 14 11 10 9 9 5 7 6 6 7 7 8 10 7 6 6 5 6 10 10 7 7 8 7 8 9 8 5 3 3 3 3 2 2
32 30 29 28 26 27 24 23 18 12 13 13 12 9 6 3 6 6 6 9 9 8 7 5 7 7 6 7 8 6 7 7 6 7 7 7 6 6 4 3 2 2 3
34 30 32 30 28 29 27 24 18 14 12 14 12 11 7 1 4 3 4 5 6 7 7 6 5 5 10 9 5 5 4 6 5 7 6 6 6 6 6 6 5 2 0
35 32 32 31 29 29 27 24 20 17 15 14 12 12 9 3 2 3 2 4 7 7 6 5 6 8 12 7 5 6 3 4 5 6 4 5 4 5 7 5 4 4 3
39 37 35 35 33 32 31 29 27 24 21 17 13 13 12 8 5 2 5 5 8 7 7 6 6 7 7 10 8 6 6 8 4 3 3 1 3 3 4 3 2 3 3
42 42 40 38 37 36 35 30 28 27 27 22 17 13 13 12 8 6 6 7 8 8 7 7 8 9 8 9 13 11 6 6 3 5 5 7 6 2 5 7 3 1 1
47 47 46 41 40 40 37 35 32 29 29 29 25 21 16 14 12 10 7 11 10 10 8 9 9 7 11 11 8 12 8 4 5 7 8 9 9 4 2 3 7 7 4
53 51 47 46 43 43 42 37 33 30 35 33 32 26 21 16 14 13 10 9 13 13 12 9 10 10 11 13 12 13 11 7 9 5 8 8 10 7 3 1 2 4 5
54 53 50 48 47 43 45 40 35 31 32 35 34 29 26 21 17 15 13 10 13 14 13 10 9 12 11 14 13 13 13 8 11 8 6 8 8 7 6 4 3 2 1
55 55 54 52 50 47 48 44 39 34 30 31 32 34 31 27 24 21 16 13 13 15 14 12 10 13 11 9 15 15 14 14 11 11 11 10 10 7 6 9 8 5 4
Wind_Direction
144 145 140 136 132 130 125 121 117 118 119 119 118 121 124 127 129 129 130 129 125 125 122 116 102 95 101 121 135 147 152 156 149 131 116 109 113 113 98 102 99 100 96
147 149 145 139 136 134 129 125 121 122 120 121 122 123 124 126 129 134 130 127 126 126 123 114 106 100 102 108 115 123 128 135 134 127 115 120 122 108 100 103 101 101 103
152 149 148 143 139 135 131 127 124 123 121 118 119 121 120 119 121 123 124 126 127 121 119 111 99 107 110 106 112 117 119 116 125 129 126 128 132 117 103 105 107 106 105
152 151 150 145 139 135 131 127 122 118 117 118 114 113 117 112 109 117 122 124 121 115 112 110 106 110 113 107 117 112 114 105 108 125 128 120 119 118 114 113 110 109 104
153 151 149 144 141 137 133 128 122 118 118 116 116 114 113 116 117 115 115 115 114 113 110 104 115 120 112 115 117 107 122 107 106 114 133 114 120 117 117 115 116 111 111
151 151 149 146 145 140 135 128 122 121 120 114 113 113 111 109 109 108 105 104 105 107 109 105 111 128 129 118 115 112 111 112 98 91 125 119 116 118 114 116 115 115 115
152 152 151 151 148 144 137 130 128 123 124 123 118 115 113 110 108 104 103 103 100 100 99 103 109 127 134 116 111 118 105 101 94 95 105 121 121 122 129 117 123 119 120
153 153 152 154 151 145 138 133 132 126 126 126 124 121 117 114 109 104 101 97 97 93 88 101 112 130 135 113 100 110 96 87 87 97 107 116 121 126 129 127 128 127 127
155 155 155 156 151 147 141 136 134 131 131 129 126 124 122 118 113 104 102 100 100 97 93 92 103 122 134 115 105 109 102 86 88 91 99 107 118 120 126 131 133 133 132
161 161 160 158 155 150 144 138 137 139 134 129 128 129 130 127 118 114 107 105 108 103 101 92 93 120 123 116 109 109 101 98 92 93 104 110 123 134 135 133 133 133 130
166 168 166 160 157 154 145 141 140 143 136 132 131 134 134 132 124 121 117 110 105 104 102 102 101 111 120 116 112 103 103 102 87 100 125 123 132 133 134 135 134 135 137
170 172 171 165 161 159 148 144 144 146 137 133 133 141 139 136 127 120 122 120 117 115 109 110 108 109 121 115 108 118 95 89 68 104 128 131 136 135 132 138 137 137 143
174 176 174 170 168 162 155 151 152 147 143 144 152 154 143 120 124 121 120 123 121 122 130 125 115 124 137 138 126 105 118 81 62 97 132 136 134 139 137 142 140 145 147
181 179 177 176 173 167 163 156 153 151 145 139 152 138 149 157 142 123 124 132 123 129 134 130 116 103 101 110 162 176 115 124 55 112 139 137 138 137 142 147 150 155 148
185 183 182 181 178 172 168 161 159 152 143 137 134 136 129 135 134 157 114 140 132 132 127 145 113 106 101 98 102 109 143 131 112 115 109 132 141 148 156 148 146 159 158
184 186 186 187 181 176 170 166 159 156 152 146 135 124 118 159 160 129 146 139 148 143 137 140 141 121 126 124 115 113 116 112 116 98 82 101 135 142 143 147 148 160 155
188 187 191 190 184 176 171 169 173 171 182 175 144 140 129 156 165 157 158 156 148 155 135 129 153 150 135 128 132 120 122 123 131 100 84 85 99 129 138 135 137 158 166
190 193 193 192 189 182 180 177 183 190 190 183 176 175 181 176 164 152 148 162 157 158 147 138 111 122 146 141 136 126 129 134 147 114 89 77 81 94 111 136 145 159 181
196 195 193 194 192 189 186 186 193 199 194 186 180 181 187 126 166 181 167 156 163 160 142 159 150 146 153 167 169 167 127 137 138 125 101 81 99 79 81 95 88 79 259
205 202 196 195 193 192 192 193 199 203 204 198 191 194 193 173 156 197 183 191 177 165 178 171 161 161 172 172 141 165 172 164 128 129 143 83 118 83 77 88 83 44 46
209 208 205 204 201 200 200 199 202 209 210 208 201 199 206 205 209 218 216 194 192 195 204 180 173 177 166 183 170 179 180 181 193 170 163 164 145 99 70 74 101 57 58
210 213 211 214 214 209 208 207 209 211 217 216 213 211 210 218 216 227 231 217 217 215 205 206 198 188 205 172 179 166 166 169 171 196 204 208 195 127 79 66 65 35 75
211 213 214 218 221 217 215 214 216 217 219 219 217 217 213 216 220 224 247 229 227 214 201 197 184 195 188 176 186 192 177 198 200 221 232 215 212 212 154 105 79 85 85
213 213 218 221 222 221 218 217 219 222 220 221 222 223 224 222 221 223 239 233 222 217 216 206 206 203 208 198 192 185 198 204 200 231 233 231 226 232 229 186 57 78 93
208 211 216 220 223 221 220 219 219 224 227 226 226 224 227 226 229 228 230 239 231 225 215 216 217 209 209 212 209 207 217 237 215 255 252 233 248 248 241 252 275 260 71
209 212 215 218 224 223 220 220 221 224 228 227 227 227 225 227 230 234 233 238 239 232 221 222 231 212 216 229 218 220 222 219 226 233 246 256 255 258 268 262 264 272 265